Location: Most
(50.5133°N, 13.6207°E)
Time: 08:55:19
(UTC+01:00)

Oscar 11 - Pass Details

Date: 06 December 2021
Orbit: 611 x 625 km, 97.6° (Epoch: 26 January)

Event Time Altitude Azimuth Distance (km) Brightness Sun altitude
Rises 04:51:56 0° 21° (NNE) 2,919 10.7 -27.3°
Reaches altitude 10° 04:54:22 10° 32° (NNE) 2,005 10.0 -26.9°
Maximum altitude 04:58:14 30° 94° (E) 1,119 9.0 -26.3°
Drops below altitude 10° 05:02:03 10° 157° (SSE) 1,983 10.0 -25.7°
Sets 05:04:26 0° 168° (SSE) 2,881 10.7 -25.3°
